Time,TemperatureF,DewpointF,PressureIn,WindDirection,WindDirectionDegrees,WindSpeedMPH,WindSpeedGustMPH,Humidity,HourlyPrecipIn,Conditions,Clouds,dailyrainin,SolarRadiationWatts/m^2,SoftwareType,DateUTC
2013-06-18 00:05:00,65.1,63.6,29.82,SW,219,3.0,6.0,95,0.00,,,0.00,0,Wunderground v.1.15,2013-06-18 04:05:00,
2013-06-18 00:10:00,64.9,63.4,29.81,West,264,3.0,5.0,95,0.00,,,0.00,0,Wunderground v.1.15,2013-06-18 04:10:00,
2013-06-18 00:15:00,65.0,63.5,29.81,WNW,286,4.0,6.0,95,0.00,,,0.00,0,Wunderground v.1.15,2013-06-18 04:15:00,
2013-06-18 00:20:00,65.4,63.6,29.80,WSW,253,5.0,5.0,94,0.00,,,0.00,0,Wunderground v.1.15,2013-06-18 04:20:00,
2013-06-18 00:25:00,65.4,63.3,29.80,WNW,286,3.0,5.0,93,0.00,,,0.00,0,Wunderground v.1.15,2013-06-18 04:25:00,
2013-06-18 00:30:00,65.2,63.1,29.80,WNW,286,1.0,1.0,93,0.00,,,0.00,0,Wunderground v.1.15,2013-06-18 04:30:00,
2013-06-18 00:40:00,65.2,63.4,29.79,WNW,296,0.0,0.0,94,0.00,,,0.00,0,Wunderground v.1.15,2013-06-18 04:40:00,
2013-06-18 00:45:00,65.1,63.3,29.79,WNW,296,0.0,0.0,94,0.00,,,0.00,0,Wunderground v.1.15,2013-06-18 04:45:00,
2013-06-18 00:55:00,64.8,63.0,29.78,ESE,110,1.0,3.0,94,0.00,,,0.00,0,Wunderground v.1.15,2013-06-18 04:55:00,
2013-06-18 01:00:00,64.5,62.7,29.78,SSE,147,3.0,6.0,94,0.00,,,0.00,0,Wunderground v.1.15,2013-06-18 05:00:00,
2013-06-18 01:05:00,64.3,62.8,29.77,SE,145,3.0,6.0,95,0.00,,,0.00,0,Wunderground v.1.15,2013-06-18 05:05:00,
2013-06-18 01:15:00,64.3,62.8,29.75,South,172,4.0,4.0,95,0.00,,,0.00,0,Wunderground v.1.15,2013-06-18 05:15:00,
2013-06-18 01:20:00,64.3,62.8,29.76,ESE,109,3.0,5.0,95,0.00,,,0.00,0,Wunderground v.1.15,2013-06-18 05:20:00,
2013-06-18 01:30:00,64.3,62.8,29.76,SE,133,3.0,3.0,95,0.00,,,0.01,0,Wunderground v.1.15,2013-06-18 05:30:00,
2013-06-18 01:35:00,64.3,62.8,29.76,SE,143,2.0,3.0,95,0.00,,,0.01,0,Wunderground v.1.15,2013-06-18 05:35:00,
2013-06-18 01:45:00,64.4,62.9,29.76,East,92,1.0,2.0,95,0.00,,,0.01,0,Wunderground v.1.15,2013-06-18 05:45:00,
2013-06-18 01:50:00,64.5,63.0,29.76,East,92,0.0,0.0,95,0.00,,,0.01,0,Wunderground v.1.15,2013-06-18 05:50:00,
2013-06-18 01:55:00,64.5,63.0,29.75,East,92,0.0,0.0,95,0.00,,,0.01,0,Wunderground v.1.15,2013-06-18 05:55:00,
2013-06-18 02:05:00,64.5,63.0,29.74,South,172,0.0,0.0,95,0.00,,,0.01,0,Wunderground v.1.15,2013-06-18 06:05:00,
2013-06-18 02:15:00,64.4,63.2,29.74,WNW,285,0.0,0.0,96,0.00,,,0.01,0,Wunderground v.1.15,2013-06-18 06:15:00,
2013-06-18 02:20:00,64.4,63.2,29.74,West,278,0.0,1.0,96,0.00,,,0.01,0,Wunderground v.1.15,2013-06-18 06:20:00,
2013-06-18 02:30:00,64.2,62.7,29.74,NE,48,1.0,1.0,95,0.00,,,0.01,0,Wunderground v.1.15,2013-06-18 06:30:00,
2013-06-18 02:35:00,64.2,62.7,29.74,SSE,152,1.0,1.0,95,0.00,,,0.01,0,Wunderground v.1.15,2013-06-18 06:35:00,
2013-06-18 02:45:00,64.2,62.7,29.76,NNE,25,2.0,3.0,95,0.00,,,0.01,0,Wunderground v.1.15,2013-06-18 06:45:00,
2013-06-18 02:50:00,64.2,62.7,29.76,NE,36,2.0,2.0,95,0.00,,,0.01,0,Wunderground v.1.15,2013-06-18 06:50:00,
2013-06-18 02:55:00,64.2,62.7,29.76,North,354,2.0,2.0,95,0.00,,,0.01,0,Wunderground v.1.15,2013-06-18 06:55:00,
2013-06-18 03:05:00,64.2,62.7,29.77,NNW,332,2.0,5.0,95,0.00,,,0.01,0,Wunderground v.1.15,2013-06-18 07:05:00,
2013-06-18 03:10:00,64.2,62.7,29.77,NNW,327,3.0,3.0,95,0.00,,,0.01,0,Wunderground v.1.15,2013-06-18 07:10:00,
2013-06-18 03:15:00,64.3,62.8,29.78,NNE,21,2.0,3.0,95,0.00,,,0.01,0,Wunderground v.1.15,2013-06-18 07:15:00,
2013-06-18 03:25:00,64.4,62.6,29.77,NE,38,1.0,2.0,94,0.00,,,0.01,0,Wunderground v.1.15,2013-06-18 07:25:00,
2013-06-18 03:30:00,64.4,62.6,29.78,NNW,341,0.0,2.0,94,0.00,,,0.01,0,Wunderground v.1.15,2013-06-18 07:30:00,
2013-06-18 03:40:00,64.4,62.6,29.78,West,278,2.0,2.0,94,0.00,,,0.01,0,Wunderground v.1.15,2013-06-18 07:40:00,
2013-06-18 03:45:00,64.3,62.5,29.79,West,278,1.0,2.0,94,0.00,,,0.01,0,Wunderground v.1.15,2013-06-18 07:45:00,
2013-06-18 03:50:00,64.3,62.5,29.79,West,278,0.0,0.0,94,0.00,,,0.01,0,Wunderground v.1.15,2013-06-18 07:50:00,
2013-06-18 04:00:00,64.1,62.6,29.78,West,275,0.0,0.0,95,0.00,,,0.01,0,Wunderground v.1.15,2013-06-18 08:00:00,
2013-06-18 04:05:00,64.1,62.6,29.78,West,275,0.0,0.0,95,0.00,,,0.01,0,Wunderground v.1.15,2013-06-18 08:05:00,
2013-06-18 04:15:00,64.0,62.5,29.78,West,275,0.0,0.0,95,0.00,,,0.01,0,Wunderground v.1.15,2013-06-18 08:15:00,
2013-06-18 04:20:00,64.0,62.5,29.79,West,275,0.0,0.0,95,0.00,,,0.01,0,Wunderground v.1.15,2013-06-18 08:20:00,
2013-06-18 04:25:00,63.9,62.4,29.79,West,275,0.0,0.0,95,0.00,,,0.01,0,Wunderground v.1.15,2013-06-18 08:25:00,
2013-06-18 04:35:00,63.9,62.7,29.78,West,275,0.0,0.0,96,0.00,,,0.01,0,Wunderground v.1.15,2013-06-18 08:35:00,
2013-06-18 04:40:00,63.8,62.6,29.79,West,275,0.0,0.0,96,0.00,,,0.01,0,Wunderground v.1.15,2013-06-18 08:40:00,
2013-06-18 04:50:00,63.9,62.7,29.79,West,280,1.0,1.0,96,0.00,,,0.01,0,Wunderground v.1.15,2013-06-18 08:50:00,
2013-06-18 04:55:00,63.9,62.7,29.79,West,280,0.0,1.0,96,0.00,,,0.01,0,Wunderground v.1.15,2013-06-18 08:55:00,
2013-06-18 05:00:00,63.9,62.7,29.79,West,280,0.0,0.0,96,0.00,,,0.01,0,Wunderground v.1.15,2013-06-18 09:00:00,
2013-06-18 05:10:00,63.6,62.4,29.80,West,280,0.0,0.0,96,0.00,,,0.01,0,Wunderground v.1.15,2013-06-18 09:10:00,
2013-06-18 05:15:00,63.6,62.4,29.79,West,280,0.0,0.0,96,0.00,,,0.01,0,Wunderground v.1.15,2013-06-18 09:15:00,
2013-06-18 05:25:00,63.5,62.3,29.80,West,280,0.0,0.0,96,0.00,,,0.01,0,Wunderground v.1.15,2013-06-18 09:25:00,
2013-06-18 05:30:00,63.5,62.3,29.80,East,95,0.0,1.0,96,0.00,,,0.01,0,Wunderground v.1.15,2013-06-18 09:30:00,
2013-06-18 05:40:00,63.7,62.5,29.80,ENE,62,0.0,0.0,96,0.00,,,0.01,0,Wunderground v.1.15,2013-06-18 09:40:00,
2013-06-18 05:45:00,63.7,62.5,29.80,ENE,62,0.0,0.0,96,0.00,,,0.01,0,Wunderground v.1.15,2013-06-18 09:45:00,
2013-06-18 05:50:00,63.8,62.6,29.80,NNE,17,0.0,2.0,96,0.00,,,0.01,0,Wunderground v.1.15,2013-06-18 09:50:00,
2013-06-18 06:00:00,63.9,62.7,29.81,NW,304,2.0,2.0,96,0.00,,,0.01,0,Wunderground v.1.15,2013-06-18 10:00:00,
2013-06-18 06:05:00,63.9,62.7,29.81,NW,304,1.0,2.0,96,0.00,,,0.01,0,Wunderground v.1.15,2013-06-18 10:05:00,
2013-06-18 06:15:00,63.8,62.6,29.81,NW,308,2.0,2.0,96,0.00,,,0.01,0,Wunderground v.1.15,2013-06-18 10:15:00,
2013-06-18 06:20:00,63.8,62.6,29.81,NW,308,1.0,1.0,96,0.00,,,0.01,0,Wunderground v.1.15,2013-06-18 10:20:00,
2013-06-18 06:25:00,64.1,62.9,29.81,NW,308,0.0,1.0,96,0.00,,,0.01,0,Wunderground v.1.15,2013-06-18 10:25:00,
2013-06-18 06:35:00,64.0,62.8,29.82,NW,308,1.0,2.0,96,0.00,,,0.01,0,Wunderground v.1.15,2013-06-18 10:35:00,
2013-06-18 06:40:00,64.0,62.8,29.82,NW,308,1.0,1.0,96,0.00,,,0.01,0,Wunderground v.1.15,2013-06-18 10:40:00,
2013-06-18 06:50:00,64.4,63.2,29.83,WNW,293,0.0,0.0,96,0.00,,,0.01,11,Wunderground v.1.15,2013-06-18 10:50:00,
2013-06-18 06:55:00,64.3,63.1,29.83,WNW,293,0.0,0.0,96,0.00,,,0.01,21,Wunderground v.1.15,2013-06-18 10:55:00,
2013-06-18 07:00:00,64.3,63.1,29.83,WNW,293,0.0,0.0,96,0.00,,,0.01,25,Wunderground v.1.15,2013-06-18 11:00:00,
2013-06-18 07:10:00,64.4,63.2,29.82,WNW,293,0.0,0.0,96,0.00,,,0.01,28,Wunderground v.1.15,2013-06-18 11:10:00,
2013-06-18 07:15:00,64.6,63.4,29.82,WNW,293,0.0,0.0,96,0.00,,,0.01,30,Wunderground v.1.15,2013-06-18 11:15:00,
2013-06-18 07:25:00,64.5,63.0,29.82,WNW,292,0.0,0.0,95,0.00,,,0.01,49,Wunderground v.1.15,2013-06-18 11:25:00,
2013-06-18 07:30:00,64.6,63.4,29.82,WNW,292,0.0,0.0,96,0.00,,,0.01,53,Wunderground v.1.15,2013-06-18 11:30:00,
2013-06-18 07:35:00,64.9,63.7,29.82,WNW,283,0.0,0.0,96,0.00,,,0.01,130,Wunderground v.1.15,2013-06-18 11:35:00,
2013-06-18 07:45:00,65.2,64.0,29.82,West,268,0.0,0.0,96,0.00,,,0.01,188,Wunderground v.1.15,2013-06-18 11:45:00,
2013-06-18 07:50:00,65.9,64.7,29.83,West,268,0.0,0.0,96,0.00,,,0.01,202,Wunderground v.1.15,2013-06-18 11:50:00,
2013-06-18 08:00:00,66.8,65.3,29.83,West,268,0.0,0.0,95,0.00,,,0.01,225,Wunderground v.1.15,2013-06-18 12:00:00,
2013-06-18 08:05:00,67.2,65.1,29.83,West,268,0.0,1.0,93,0.00,,,0.01,260,Wunderground v.1.15,2013-06-18 12:05:00,
2013-06-18 08:10:00,67.7,65.0,29.83,NW,310,2.0,3.0,91,0.00,,,0.01,287,Wunderground v.1.15,2013-06-18 12:10:00,
2013-06-18 08:20:00,68.0,65.0,29.82,WNW,300,2.0,2.0,90,0.00,,,0.01,262,Wunderground v.1.15,2013-06-18 12:20:00,
2013-06-18 08:25:00,68.0,65.0,29.82,WNW,300,2.0,2.0,90,0.00,,,0.01,142,Wunderground v.1.15,2013-06-18 12:25:00,
2013-06-18 08:35:00,68.3,65.3,29.83,WNW,284,1.0,3.0,90,0.00,,,0.01,313,Wunderground v.1.15,2013-06-18 12:35:00,
2013-06-18 08:40:00,68.6,65.2,29.83,NW,311,2.0,2.0,89,0.00,,,0.01,302,Wunderground v.1.15,2013-06-18 12:40:00,
2013-06-18 08:45:00,68.8,65.4,29.83,WNW,300,3.0,3.0,89,0.00,,,0.01,265,Wunderground v.1.15,2013-06-18 12:45:00,
2013-06-18 08:55:00,68.9,65.2,29.84,WNW,290,4.0,5.0,88,0.00,,,0.01,360,Wunderground v.1.15,2013-06-18 12:55:00,
2013-06-18 09:00:00,69.3,65.3,29.84,WNW,293,4.0,4.0,87,0.00,,,0.01,373,Wunderground v.1.15,2013-06-18 13:00:00,
2013-06-18 09:10:00,70.1,65.4,29.84,North,8,3.0,3.0,85,0.00,,,0.01,399,Wunderground v.1.15,2013-06-18 13:10:00,
2013-06-18 09:15:00,70.3,64.5,29.84,WNW,302,3.0,3.0,82,0.00,,,0.01,417,Wunderground v.1.15,2013-06-18 13:15:00,
2013-06-18 09:25:00,70.9,64.4,29.84,North,4,2.0,3.0,80,0.00,,,0.01,443,Wunderground v.1.15,2013-06-18 13:25:00,
2013-06-18 09:30:00,71.5,65.0,29.84,NW,307,2.0,2.0,80,0.00,,,0.01,457,Wunderground v.1.15,2013-06-18 13:30:00,
2013-06-18 09:35:00,72.0,65.1,29.84,NNW,327,2.0,2.0,79,0.00,,,0.01,473,Wunderground v.1.15,2013-06-18 13:35:00,
2013-06-18 09:40:00,72.4,64.4,29.84,NNW,339,2.0,3.0,76,0.00,,,0.01,489,Wunderground v.1.15,2013-06-18 13:40:00,
2013-06-18 09:50:00,72.9,64.5,29.84,NNW,328,2.0,2.0,75,0.00,,,0.01,517,Wunderground v.1.15,2013-06-18 13:50:00,
2013-06-18 09:55:00,73.2,64.0,29.84,NNW,338,2.0,4.0,73,0.00,,,0.01,533,Wunderground v.1.15,2013-06-18 13:55:00,
2013-06-18 10:05:00,74.2,65.0,29.84,North,4,1.0,1.0,73,0.00,,,0.01,559,Wunderground v.1.15,2013-06-18 14:05:00,
2013-06-18 10:15:00,73.9,64.3,29.84,NW,305,2.0,3.0,72,0.00,,,0.01,587,Wunderground v.1.15,2013-06-18 14:15:00,
2013-06-18 10:20:00,74.4,63.6,29.84,ENE,60,2.0,2.0,69,0.00,,,0.01,601,Wunderground v.1.15,2013-06-18 14:20:00,
2013-06-18 10:25:00,74.9,63.2,29.84,NNW,334,2.0,2.0,67,0.00,,,0.01,615,Wunderground v.1.15,2013-06-18 14:25:00,
2013-06-18 10:35:00,75.2,65.1,29.84,NE,49,3.0,3.0,71,0.00,,,0.01,640,Wunderground v.1.15,2013-06-18 14:35:00,
2013-06-18 10:40:00,75.2,64.7,29.83,North,354,2.0,2.0,70,0.00,,,0.01,650,Wunderground v.1.15,2013-06-18 14:40:00,
2013-06-18 10:50:00,75.3,65.2,29.83,WNW,297,3.0,3.0,71,0.00,,,0.01,684,Wunderground v.1.15,2013-06-18 14:50:00,
2013-06-18 10:55:00,75.3,64.8,29.83,North,359,3.0,6.0,70,0.00,,,0.01,696,Wunderground v.1.15,2013-06-18 14:55:00,
2013-06-18 11:00:00,75.5,65.0,29.83,NNW,345,3.0,5.0,70,0.00,,,0.01,715,Wunderground v.1.15,2013-06-18 15:00:00,
2013-06-18 11:10:00,75.9,65.0,29.82,WNW,290,3.0,3.0,69,0.00,,,0.01,745,Wunderground v.1.15,2013-06-18 15:10:00,
2013-06-18 11:15:00,76.0,65.1,29.82,NNW,338,2.0,3.0,69,0.00,,,0.01,756,Wunderground v.1.15,2013-06-18 15:15:00,
2013-06-18 11:25:00,77.3,64.6,29.82,ESE,115,1.0,2.0,65,0.00,,,0.01,823,Wunderground v.1.15,2013-06-18 15:25:00,
2013-06-18 11:30:00,78.1,64.9,29.81,SSW,194,1.0,2.0,64,0.00,,,0.01,812,Wunderground v.1.15,2013-06-18 15:30:00,
2013-06-18 11:35:00,78.1,64.9,29.81,West,273,2.0,4.0,64,0.00,,,0.01,870,Wunderground v.1.15,2013-06-18 15:35:00,
2013-06-18 11:45:00,77.5,65.2,29.82,NW,310,4.0,4.0,66,0.00,,,0.01,796,Wunderground v.1.15,2013-06-18 15:45:00,
2013-06-18 11:50:00,77.6,64.9,29.82,WNW,291,5.0,5.0,65,0.00,,,0.01,810,Wunderground v.1.15,2013-06-18 15:50:00,
2013-06-18 12:00:00,77.3,64.6,29.82,West,273,6.0,6.0,65,0.00,,,0.01,838,Wunderground v.1.15,2013-06-18 16:00:00,
2013-06-18 12:05:00,77.5,65.2,29.83,WNW,287,6.0,6.0,66,0.00,,,0.01,849,Wunderground v.1.15,2013-06-18 16:05:00,
2013-06-18 12:15:00,77.5,65.2,29.83,NNW,345,4.0,6.0,66,0.00,,,0.01,907,Wunderground v.1.15,2013-06-18 16:15:00,
2013-06-18 12:20:00,77.7,65.0,29.83,WSW,257,4.0,7.0,65,0.00,,,0.01,925,Wunderground v.1.15,2013-06-18 16:20:00,
2013-06-18 12:25:00,77.8,64.6,29.82,NW,311,5.0,7.0,64,0.00,,,0.01,882,Wunderground v.1.15,2013-06-18 16:25:00,
2013-06-18 12:35:00,78.1,64.0,29.82,NE,52,3.0,4.0,62,0.00,,,0.01,976,Wunderground v.1.15,2013-06-18 16:35:00,
2013-06-18 12:40:00,78.8,66.0,29.82,NNE,27,3.0,4.0,65,0.00,,,0.01,984,Wunderground v.1.15,2013-06-18 16:40:00,
2013-06-18 12:50:00,78.9,66.1,29.82,West,278,4.0,4.0,65,0.00,,,0.02,1018,Wunderground v.1.15,2013-06-18 16:50:00,
2013-06-18 12:55:00,78.3,65.1,29.82,NW,325,5.0,6.0,64,0.00,,,0.02,345,Wunderground v.1.15,2013-06-18 16:55:00,
2013-06-18 13:05:00,78.0,65.3,29.82,WNW,296,5.0,6.0,65,0.00,,,0.02,756,Wunderground v.1.15,2013-06-18 17:05:00,
2013-06-18 13:10:00,78.7,66.4,29.82,NW,306,4.0,4.0,66,0.00,,,0.02,979,Wunderground v.1.15,2013-06-18 17:10:00,
2013-06-18 13:20:00,79.4,66.2,29.81,NW,310,4.0,6.0,64,0.00,,,0.02,953,Wunderground v.1.15,2013-06-18 17:20:00,
2013-06-18 13:25:00,79.5,65.3,29.81,NNE,31,4.0,6.0,62,0.00,,,0.02,988,Wunderground v.1.15,2013-06-18 17:25:00,
2013-06-18 13:30:00,79.8,65.2,29.81,West,268,3.0,5.0,61,0.00,,,0.02,951,Wunderground v.1.15,2013-06-18 17:30:00,
2013-06-18 13:40:00,80.2,65.1,29.81,NNW,328,3.0,6.0,60,0.00,,,0.02,953,Wunderground v.1.15,2013-06-18 17:40:00,
2013-06-18 13:45:00,80.3,65.1,29.81,NNW,338,3.0,7.0,60,0.00,,,0.02,946,Wunderground v.1.15,2013-06-18 17:45:00,
2013-06-18 13:50:00,80.1,65.0,29.81,NNW,345,5.0,5.0,60,0.00,,,0.02,935,Wunderground v.1.15,2013-06-18 17:50:00,
2013-06-18 14:00:00,80.2,65.1,29.81,WSW,252,3.0,5.0,60,0.00,,,0.02,933,Wunderground v.1.15,2013-06-18 18:00:00,
2013-06-18 14:05:00,80.0,65.3,29.81,NW,306,3.0,5.0,61,0.00,,,0.02,940,Wunderground v.1.15,2013-06-18 18:05:00,
2013-06-18 14:15:00,80.9,65.2,29.80,SW,218,2.0,3.0,59,0.00,,,0.02,928,Wunderground v.1.15,2013-06-18 18:15:00,
2013-06-18 14:20:00,80.8,65.1,29.80,WSW,249,3.0,5.0,59,0.00,,,0.02,923,Wunderground v.1.15,2013-06-18 18:20:00,
2013-06-18 14:25:00,80.6,64.9,29.80,West,280,4.0,5.0,59,0.00,,,0.02,907,Wunderground v.1.15,2013-06-18 18:25:00,